Flag for French Guiana Past Weather in Saint-Laurent-du-Maroni, French Guiana — Yesterday and Last 2 Weeks

Now
77 °F

Passing clouds.


Feels Like: 78 °F
Forecast: 76 / 92 °F
Wind: 2 mph from South

Location: Johan A. Pengel

Current Time: Sep 28, 2016 at 7:17:36 AM

Latest Report: Sep 28, 2016 at 6:00 AM


Visibility: N/A

Pressure: 29.86 "Hg

Humidity: 94%

Dew Point: 75 °F

Location of Saint-Laurent-du-MaroniLocation

Past Weather in Saint-Laurent-du-Maroni — Graph

°F

Saint-Laurent-du-Maroni Temperature Yesterday

Maximum temperature yesterday: 95 °F (at 3:00 PM)
Minimum temperature yesterday: 77 °F (at 8:00 AM)
Average temperature yesterday: 87 °F

High & Low Weather Summary for the Past Weeks

 TemperatureHumidityPressure
High95 °F (Sep 27, 3:00 PM)100% (Sep 13, 7:00 AM)32.52 "Hg (Sep 13, 7:00 AM)
Low72 °F (Sep 19, 5:00 AM)36% (Sep 25, 12:00 PM)29.77 "Hg (Sep 15, 5:00 PM)
Average82 °F78%29.90 "Hg
* Reported Sep 13 6:00 AM — Sep 28 6:00 AM, Saint-Laurent-du-Maroni, Weather by CustomWeather, © 2016

Note: Actual official high and low records may vary slightly from our data, if they occured in-between our weather recording intervals... More about our weather records

Advertising

Saint-Laurent-du-Maroni Weather History for the Previous 24 Hours

Scroll right to see more
 ConditionsComfort  
Time TempWeatherWind HumidityBarometerVisibility
6:00 AM
Wed, Sep 28
77 °FPassing clouds.2 mph94%29.86 "HgN/A
5:00 AM77 °FClear.1 mph94%29.86 "Hg10 mi
4:00 AM77 °FClear.2 mph94%29.86 "Hg10 mi
3:00 AM77 °FClear.1 mph94%29.86 "Hg10 mi
2:00 AM77 °FClear.2 mph94%29.86 "Hg10 mi
1:00 AM77 °FClear.3 mph94%29.86 "Hg10 mi
12:00 AM79 °FClear.2 mph89%29.86 "Hg10 mi
11:00 PM
Tue, Sep 27
79 °FClear.3 mph94%29.86 "Hg10 mi
10:00 PM81 °FClear.3 mph84%29.86 "Hg10 mi
9:00 PM82 °FPassing clouds.5 mph79%29.83 "HgN/A
8:00 PM84 °FClear.6 mph74%29.80 "Hg10 mi
7:00 PM86 °FPassing clouds.7 mph75%29.80 "HgN/A
6:00 PM90 °FPassing clouds.9 mph59%29.77 "HgN/A
5:00 PM93 °FPassing clouds.6 mph47%29.77 "HgN/A
4:00 PM93 °FScattered clouds.1 mph53%29.77 "HgN/A
3:00 PM95 °FScattered clouds.5 mph44%29.80 "HgN/A
2:00 PM93 °FScattered clouds.2 mph49%29.83 "HgN/A
1:00 PM91 °FScattered clouds.5 mph49%29.86 "HgN/A
12:00 PM91 °FScattered clouds.3 mph59%29.89 "HgN/A
11:00 AM88 °FScattered clouds.2 mph70%29.92 "HgN/A
10:00 AM86 °FScattered clouds.1 mph75%29.92 "HgN/A
9:00 AM82 °FPassing clouds.2 mph84%29.92 "HgN/A
8:00 AM77 °FPassing clouds.2 mph94%29.92 "HgN/A
Weather by CustomWeather, © 2016

See weather overviewHow to use our weather pages